| time (UTC) | temp F | wind direction | speed MPH | gust MPH | rain 1hr in | rain 24hr in | rain mn in | humidity % | barometer mb |
| 20260508131030 | 59 | 340 | 0.0 | 1.0 | 0.06 | 0.36 | 0.36 | 95 | 1012.5 |
| 20260508130024 | 58 | 160 | 0.0 | 1.0 | 0.18 | 0.36 | 0.36 | 94 | 1012.6 |
| 20260508125019 | 59 | 222 | 0.0 | 1.0 | 0.21 | 0.36 | 0.36 | 95 | 1012.5 |
| 20260508124034 | 59 | 240 | 0.0 | 1.0 | 0.24 | 0.36 | 0.36 | 96 | 1012.4 |
| 20260508123028 | 58 | 4 | 0.0 | 1.0 | 0.27 | 0.35 | 0.35 | 96 | 1012.6 |
| 20260508122023 | 57 | 298 | 0.0 | 2.0 | 0.28 | 0.34 | 0.34 | 95 | 1012.6 |
| 20260508121017 | 58 | 2 | 0.0 | 1.0 | 0.24 | 0.30 | 0.30 | 95 | 1012.7 |
| 20260508120031 | 57 | 14 | 1.0 | 2.0 | 0.13 | 0.18 | 0.18 | 94 | 1012.6 |
| 20260508115046 | 57 | 129 | 0.0 | 2.0 | 0.15 | 0.15 | 0.15 | 93 | 1012.5 |
| 20260508114021 | 57 | 41 | 0.0 | 1.0 | 0.12 | 0.12 | 0.12 | 93 | 1012.3 |
| 20260508113055 | 58 | 358 | 1.0 | 2.0 | 0.08 | 0.08 | 0.08 | 92 | 1012.1 |
| 20260508112029 | 58 | 9 | 0.0 | 1.0 | 0.06 | 0.06 | 0.06 | 91 | 1012.0 |
| 20260508111025 | 59 | 230 | 0.0 | 2.0 | 0.06 | 0.06 | 0.06 | 89 | 1012.0 |
| 20260508110019 | 61 | 180 | 2.0 | 4.0 | 0.05 | 0.05 | 0.05 | 82 | 1011.8 |
| 20260508105036 | 64 | 222 | 3.0 | 7.0 | 0.00 | 0.00 | 0.00 | 75 | 1011.6 |
| 20260508104029 | 64 | 359 | 2.0 | 6.0 | 0.00 | 0.00 | 0.00 | 77 | 1011.4 |
| 20260508103023 | 64 | 326 | 1.0 | 4.0 | 0.00 | 0.00 | 0.00 | 77 | 1011.5 |
| 20260508102057 | 64 | 348 | 1.0 | 3.0 | 0.00 | 0.00 | 0.00 | 78 | 1011.5 |
| 20260508101054 | 65 | 24 | 2.0 | 4.0 | 0.00 | 0.00 | 0.00 | 75 | 1011.4 |
| 20260508100027 | 67 | 4 | 2.0 | 7.0 | 0.00 | 0.00 | 0.00 | 73 | 1011.1 |
| 20260508095021 | 69 | 7 | 2.0 | 9.0 | 0.00 | 0.00 | 0.00 | 68 | 1011.2 |
| 20260508094036 | 70 | 359 | 2.0 | 6.0 | 0.00 | 0.00 | 0.00 | 66 | 1011.1 |
| 20260508093030 | 70 | 335 | 1.0 | 3.0 | 0.00 | 0.00 | 0.00 | 68 | 1011.1 |
| 20260508092024 | 69 | 334 | 2.0 | 7.0 | 0.00 | 0.00 | 0.00 | 69 | 1011.2 |
| 20260508091017 | 69 | 346 | 3.0 | 8.0 | 0.00 | 0.00 | 0.00 | 68 | 1011.1 |
| 20260508090032 | 69 | 343 | 1.0 | 6.0 | 0.00 | 0.00 | 0.00 | 63 | 1011.2 |
| 20260508085027 | 69 | 204 | 1.0 | 2.0 | 0.00 | 0.00 | 0.00 | 61 | 1011.1 |
| 20260508084022 | 69 | 164 | 0.0 | 2.0 | 0.00 | 0.00 | 0.00 | 61 | 1011.1 |
| 20260508083018 | 69 | 162 | 1.0 | 4.0 | 0.00 | 0.00 | 0.00 | 60 | 1011.0 |
| 20260508082032 | 69 | 201 | 1.0 | 2.0 | 0.00 | 0.00 | 0.00 | 63 | 1010.9 |
| 20260508081026 | 68 | 195 | 1.0 | 3.0 | 0.00 | 0.00 | 0.00 | 65 | 1010.7 |
| 20260508080020 | 68 | 191 | 1.0 | 3.0 | 0.00 | 0.00 | 0.00 | 64 | 1010.8 |
| 20260508075037 | 68 | 130 | 1.0 | 3.0 | 0.00 | 0.00 | 0.00 | 65 | 1010.7 |
| 20260508074030 | 66 | 164 | 1.0 | 2.0 | 0.00 | 0.00 | 0.00 | 69 | 1010.6 |
| 20260508073023 | 65 | 172 | 1.0 | 2.0 | 0.00 | 0.00 | 0.00 | 73 | 1010.5 |
| 20260508072018 | 65 | 194 | 1.0 | 2.0 | 0.00 | 0.00 | 0.00 | 76 | 1010.6 |
| 20260508071053 | 64 | 179 | 0.0 | 1.0 | 0.00 | 0.00 | 0.00 | 78 | 1010.5 |
| 20260508070028 | 64 | 176 | 0.0 | 1.0 | 0.00 | 0.00 | 0.00 | 79 | 1010.4 |
| 20260508065022 | 64 | 210 | 0.0 | 1.0 | 0.00 | 0.00 | 0.00 | 81 | 1010.3 |
| 20260508064016 | 63 | 187 | 0.0 | 1.0 | 0.00 | 0.00 | 0.00 | 81 | 1010.3 |
| 20260508063031 | 62 | 212 | 0.0 | 1.0 | 0.00 | 0.00 | 0.00 | 81 | 1010.3 |
| 20260508062026 | 62 | 185 | 0.0 | 1.0 | 0.00 | 0.00 | 0.00 | 83 | 1010.2 |
| 20260508061101 | 62 | 0.0 | 0.0 | 0.00 | 0.00 | 0.00 | 83 | 1010.3 | |
| 20260508060036 | 62 | 0.0 | 0.0 | 0.00 | 0.00 | 0.00 | 83 | 1010.3 | |
| 20260508055030 | 61 | 185 | 0.0 | 1.0 | 0.00 | 0.00 | 0.00 | 82 | 1010.2 |
| 20260508054045 | 61 | 10 | 0.0 | 3.0 | 0.00 | 0.00 | 0.00 | 81 | 1010.1 |
| 20260508053019 | 61 | 7 | 1.0 | 3.0 | 0.00 | 0.00 | 0.00 | 81 | 1010.0 |
| 20260508052054 | 60 | 7 | 0.0 | 2.0 | 0.00 | 0.00 | 0.00 | 81 | 1009.9 |
| 20260508051027 | 60 | 3 | 0.0 | 2.0 | 0.00 | 0.00 | 0.00 | 82 | 1009.9 |
| 20260508050022 | 59 | 18 | 0.0 | 1.0 | 0.00 | 0.00 | 0.00 | 83 | 1009.7 |
| 20260508045036 | 58 | 16 | 1.0 | 2.0 | 0.00 | 0.00 | 0.00 | 87 | 1009.6 |
| 20260508044031 | 58 | 210 | 0.0 | 1.0 | 0.00 | 0.00 | 0.00 | 86 | 1009.4 |
| 20260508043025 | 58 | 357 | 0.0 | 1.0 | 0.00 | 0.00 | 0.00 | 86 | 1009.2 |
| 20260508042020 | 57 | 45 | 0.0 | 2.0 | 0.00 | 0.00 | 0.00 | 86 | 1009.2 |
| 20260508041056 | 57 | 42 | 1.0 | 2.0 | 0.00 | 0.00 | 0.00 | 88 | 1009.0 |
| 20260508040029 | 57 | 0.0 | 0.0 | 0.00 | 0.00 | 0.00 | 87 | 1008.9 | |
| 20260508035023 | 57 | 212 | 0.0 | 1.0 | 0.00 | 0.00 | 0.00 | 86 | 1008.9 |
| 20260508034038 | 58 | 188 | 0.0 | 1.0 | 0.00 | 0.00 | 0.00 | 85 | 1008.6 |
| 20260508033033 | 58 | 0.0 | 0.0 | 0.00 | 0.00 | 0.00 | 87 | 1008.7 | |
| 20260508032028 | 57 | 0.0 | 0.0 | 0.00 | 0.00 | 0.00 | 87 | 1008.7 | |
| 20260508031021 | 58 | 188 | 0.0 | 1.0 | 0.00 | 0.00 | 0.00 | 87 | 1008.7 |
| 20260508030016 | 58 | 0.0 | 0.0 | 0.00 | 0.01 | 0.00 | 85 | 1008.7 | |
| 20260508025031 | 59 | 170 | 0.0 | 1.0 | 0.00 | 0.01 | 0.00 | 83 | 1008.8 |
| 20260508024025 | 59 | 0.0 | 0.0 | 0.00 | 0.04 | 0.00 | 82 | 1008.8 | |
| 20260508023042 | 59 | 1 | 0.0 | 1.0 | 0.00 | 0.05 | 0.00 | 82 | 1008.8 |
| 20260508022034 | 60 | 0.0 | 0.0 | 0.00 | 0.06 | 0.00 | 80 | 1008.9 | |
| 20260508021029 | 60 | 0.0 | 0.0 | 0.00 | 0.07 | 0.00 | 79 | 1008.9 | |
| 20260508020023 | 60 | 17 | 0.0 | 1.0 | 0.00 | 0.07 | 0.00 | 79 | 1008.9 |
| 20260508015039 | 59 | 42 | 0.0 | 1.0 | 0.00 | 0.07 | 0.00 | 81 | 1009.0 |
| 20260508014033 | 59 | 0.0 | 0.0 | 0.00 | 0.08 | 0.00 | 81 | 1009.1 | |
| 20260508013027 | 59 | 0.0 | 0.0 | 0.00 | 0.09 | 0.00 | 80 | 1009.1 | |
| 20260508012024 | 59 | 189 | 0.0 | 1.0 | 0.00 | 0.12 | 0.00 | 79 | 1009.1 |
| 20260508011016 | 60 | 0.0 | 0.0 | 0.00 | 0.14 | 0.00 | 77 | 1009.0 | |
| 20260508010032 | 61 | 35 | 0.0 | 1.0 | 0.00 | 0.15 | 0.00 | 76 | 1009.2 |
| 20260508005026 | 60 | 41 | 0.0 | 1.0 | 0.00 | 0.15 | 0.00 | 77 | 1009.2 |
| 20260508004040 | 60 | 0.0 | 0.0 | 0.00 | 0.15 | 0.00 | 79 | 1009.2 | |
| 20260508003034 | 61 | 30 | 0.0 | 1.0 | 0.00 | 0.16 | 0.00 | 75 | 1009.3 |
| 20260508002030 | 61 | 20 | 0.0 | 1.0 | 0.00 | 0.17 | 0.00 | 77 | 1009.6 |
| 20260508001023 | 60 | 41 | 0.0 | 1.0 | 0.00 | 0.17 | 0.00 | 77 | 1009.7 |
| 20260508000020 | 60 | 48 | 0.0 | 1.0 | 0.00 | 0.18 | 0.00 | 77 | 1009.7 |
| 20260507235052 | 61 | 28 | 0.0 | 1.0 | 0.00 | 0.18 | 0.00 | 76 | 1009.8 |
| 20260507234027 | 61 | 0.0 | 0.0 | 0.00 | 0.18 | 0.00 | 75 | 1009.9 | |
| 20260507233023 | 61 | 18 | 0.0 | 1.0 | 0.00 | 0.18 | 0.00 | 75 | 1009.9 |
| 20260507232016 | 60 | 6 | 0.0 | 1.0 | 0.00 | 0.18 | 0.00 | 77 | 1010.1 |
| 20260507231031 | 60 | 0.0 | 0.0 | 0.00 | 0.18 | 0.00 | 78 | 1010.1 | |
| 20260507230029 | 61 | 0.0 | 0.0 | 0.00 | 0.18 | 0.00 | 77 | 1010.4 | |
| 20260507225040 | 60 | 41 | 0.0 | 1.0 | 0.00 | 0.18 | 0.00 | 77 | 1010.5 |
| 20260507224035 | 61 | 0.0 | 0.0 | 0.00 | 0.18 | 0.00 | 75 | 1010.5 | |
| 20260507223030 | 60 | 27 | 0.0 | 1.0 | 0.00 | 0.18 | 0.00 | 77 | 1010.5 |
| 20260507222023 | 60 | 0.0 | 0.0 | 0.00 | 0.18 | 0.00 | 78 | 1010.7 | |
| 20260507221016 | 61 | 0.0 | 0.0 | 0.00 | 0.18 | 0.00 | 78 | 1010.6 | |
| 20260507220031 | 60 | 30 | 0.0 | 1.0 | 0.00 | 0.18 | 0.18 | 77 | 1010.6 |
| 20260507215026 | 61 | 0.0 | 0.0 | 0.00 | 0.18 | 0.18 | 75 | 1010.8 | |
| 20260507214020 | 60 | 0.0 | 0.0 | 0.00 | 0.18 | 0.18 | 76 | 1010.8 | |
| 20260507213016 | 60 | 0.0 | 0.0 | 0.00 | 0.18 | 0.18 | 76 | 1010.9 | |
| 20260507212032 | 60 | 39 | 0.0 | 1.0 | 0.00 | 0.18 | 0.18 | 74 | 1010.9 |
| 20260507211108 | 60 | 29 | 0.0 | 1.0 | 0.00 | 0.18 | 0.18 | 76 | 1010.8 |
| 20260507210022 | 60 | 0.0 | 0.0 | 0.00 | 0.18 | 0.18 | 75 | 1011.0 | |
| 20260507205017 | 61 | 0.0 | 0.0 | 0.00 | 0.18 | 0.18 | 75 | 1011.0 | |
| 20260507204032 | 61 | 25 | 0.0 | 1.0 | 0.00 | 0.18 | 0.18 | 75 | 1011.1 |
| 20260507203028 | 61 | 0.0 | 0.0 | 0.00 | 0.18 | 0.18 | 73 | 1011.0 | |
| 20260507202023 | 62 | 162 | 0.0 | 1.0 | 0.00 | 0.18 | 0.18 | 69 | 1011.1 |
| 20260507201039 | 63 | 0.0 | 0.0 | 0.00 | 0.18 | 0.18 | 65 | 1011.2 | |
| 20260507200034 | 63 | 258 | 0.0 | 1.0 | 0.00 | 0.18 | 0.18 | 63 | 1011.2 |
| 20260507195030 | 64 | 16 | 1.0 | 2.0 | 0.00 | 0.18 | 0.18 | 61 | 1011.3 |
| 20260507194024 | 63 | 351 | 1.0 | 2.0 | 0.00 | 0.18 | 0.18 | 63 | 1011.2 |
| 20260507193019 | 64 | 347 | 1.0 | 2.0 | 0.00 | 0.18 | 0.18 | 61 | 1011.1 |
| 20260507192033 | 64 | 353 | 2.0 | 3.0 | 0.00 | 0.18 | 0.18 | 63 | 1011.1 |
| 20260507191109 | 64 | 359 | 1.0 | 3.0 | 0.00 | 0.18 | 0.18 | 63 | 1011.0 |
| 20260507190024 | 65 | 349 | 1.0 | 3.0 | 0.00 | 0.18 | 0.18 | 63 | 1011.1 |
| 20260507185039 | 65 | 2 | 2.0 | 4.0 | 0.00 | 0.18 | 0.18 | 62 | 1011.1 |
| 20260507184033 | 65 | 9 | 2.0 | 3.0 | 0.00 | 0.18 | 0.18 | 63 | 1011.1 |
| 20260507183027 | 65 | 9 | 2.0 | 3.0 | 0.00 | 0.18 | 0.18 | 63 | 1011.0 |
| 20260507182022 | 65 | 354 | 2.0 | 4.0 | 0.00 | 0.18 | 0.18 | 64 | 1011.0 |
| 20260507181016 | 66 | 19 | 2.0 | 3.0 | 0.00 | 0.18 | 0.18 | 63 | 1011.0 |
| 20260507180031 | 66 | 16 | 2.0 | 6.0 | 0.00 | 0.18 | 0.18 | 61 | 1011.1 |
| 20260507175027 | 67 | 22 | 2.0 | 6.0 | 0.00 | 0.18 | 0.18 | 60 | 1011.2 |
| 20260507174021 | 67 | 17 | 0.0 | 2.0 | 0.00 | 0.20 | 0.18 | 61 | 1011.2 |
| 20260507173016 | 67 | 6 | 1.0 | 2.0 | 0.00 | 0.20 | 0.18 | 59 | 1011.2 |
| 20260507172032 | 68 | 7 | 1.0 | 3.0 | 0.00 | 0.20 | 0.18 | 58 | 1011.1 |
| 20260507171026 | 68 | 3 | 1.0 | 3.0 | 0.00 | 0.20 | 0.18 | 58 | 1011.1 |
| 20260507170020 | 69 | 356 | 1.0 | 3.0 | 0.00 | 0.20 | 0.18 | 59 | 1011.1 |
| 20260507165036 | 69 | 353 | 1.0 | 3.0 | 0.00 | 0.20 | 0.18 | 59 | 1011.2 |
| 20260507164029 | 69 | 20 | 1.0 | 3.0 | 0.00 | 0.20 | 0.18 | 60 | 1011.1 |
| 20260507163024 | 69 | 182 | 1.0 | 3.0 | 0.00 | 0.20 | 0.18 | 61 | 1011.0 |
| 20260507162039 | 70 | 333 | 1.0 | 2.0 | 0.00 | 0.20 | 0.18 | 61 | 1011.0 |
| 20260507161033 | 70 | 346 | 2.0 | 3.0 | 0.00 | 0.20 | 0.18 | 60 | 1011.0 |
| 20260507160027 | 70 | 10 | 1.0 | 6.0 | 0.00 | 0.20 | 0.18 | 60 | 1011.0 |
| 20260507155123 | 71 | 331 | 1.0 | 2.0 | 0.00 | 0.20 | 0.18 | 61 | 1011.0 |
| 20260507154017 | 70 | 358 | 1.0 | 3.0 | 0.00 | 0.20 | 0.18 | 62 | 1011.1 |
| 20260507153032 | 70 | 8 | 1.0 | 4.0 | 0.00 | 0.20 | 0.18 | 61 | 1011.0 |
| 20260507152028 | 70 | 322 | 1.0 | 3.0 | 0.00 | 0.20 | 0.18 | 62 | 1011.1 |
| 20260507151021 | 70 | 356 | 1.0 | 3.0 | 0.00 | 0.20 | 0.18 | 62 | 1011.1 |
| 20260507150036 | 71 | 303 | 1.0 | 2.0 | 0.00 | 0.20 | 0.18 | 63 | 1011.1 |
| 20260507145031 | 72 | 7 | 1.0 | 3.0 | 0.00 | 0.20 | 0.18 | 60 | 1011.1 |
| 20260507144026 | 73 | 319 | 2.0 | 4.0 | 0.00 | 0.20 | 0.18 | 60 | 1011.2 |
| 20260507143020 | 73 | 293 | 1.0 | 4.0 | 0.00 | 0.20 | 0.18 | 61 | 1011.2 |
| 20260507142055 | 72 | 262 | 1.0 | 2.0 | 0.00 | 0.20 | 0.18 | 63 | 1011.6 |
| 20260507141029 | 72 | 232 | 0.0 | 2.0 | 0.00 | 0.20 | 0.18 | 66 | 1011.6 |
| 20260507140024 | 71 | 213 | 2.0 | 4.0 | 0.00 | 0.20 | 0.18 | 66 | 1011.9 |
| 20260507135018 | 70 | 236 | 1.0 | 3.0 | 0.00 | 0.20 | 0.18 | 66 | 1012.1 |
| 20260507134033 | 69 | 226 | 2.0 | 4.0 | 0.00 | 0.20 | 0.18 | 67 | 1012.2 |
| 20260507133029 | 71 | 243 | 1.0 | 3.0 | 0.00 | 0.20 | 0.18 | 62 | 1012.2 |
| 20260507132024 | 70 | 204 | 1.0 | 4.0 | 0.00 | 0.20 | 0.18 | 57 | 1012.2 |